Location: Dittelbrunn
(50.0738°N, 10.2196°E)
Time: 22:48:45
(UTC+00:00)

Lacrosse 5 rocket - Pass Details

Date: 18 September 2020
Orbit: 460 x 636 km, 57.0° (Epoch: 30 October)

Event Time Altitude Azimuth Distance (km) Brightness Sun altitude
Rises 19:46:58 0° 281° (WNW) 2,790 6.1 -22.3°
Reaches altitude 10° 19:49:21 10° 291° (WNW) 1,921 5.2 -22.7°
Maximum altitude 19:53:21 34° 357° (N) 1,021 2.9 -23.2°
Enters shadow 19:55:08 25° 39° (NE) 1,265 3.1 -23.4°
